Date String (YYYY-MM-DD hh:mm:ss) UTC,Instrument flags,absolute air pressure of the measurement (hPa),sample flow rate (lpm),inlet stack bypass flow (lpm),air temperature of the measurement (°C),ambient temperature measured by the external sensor (°C),aerosol sample conditioner tube jacket temperature (°C),OPC LED temperature (°C),internal box temperature (°C),relative humidity of the measurement (%),span deviation,mass concentration of particles derived from Lorenz-Mie calculation of OPC scattering (μg/m³),mass concentration of particles derived from Lorenz-Mie calculation of OPC scattering (μg/m³),mass concentration of particles derived from Lorenz-Mie calculation of OPC scattering (μg/m³)
DateTimeUTC,F1_M11,P_M11,Q1_M11,Q2_M11,T1_M11,T2_M11,T3_M11,T4_M11,T5_M11,U1_M11,ZSPAN_M11,X0_M11,X2_M11,X1_M11
2023-06-01 09:00:00,SystemResetWarning,0826.4,5.00,000.00,029.0,027.4,000.0,037.4,030.6,28.4,0000.0,0011.30,0005.04,0004.00
2023-06-01 09:01:00,SystemResetWarning,0826.4,5.00,000.00,029.0,027.4,000.0,037.4,030.6,28.5,0000.0,0011.41,0005.04,0004.00
2023-06-01 09:02:00,SystemResetWarning,0826.3,5.00,000.00,029.0,027.4,000.0,037.4,030.6,28.4,0000.0,0011.34,0004.99,0003.99
2023-06-01 09:03:00,SystemResetWarning,0826.4,5.00,000.00,029.0,027.3,000.0,037.4,030.6,28.4,0000.0,0011.42,0005.02,0003.99
2023-06-01 09:04:00,SystemResetWarning,0826.4,5.00,000.00,029.0,027.3,000.0,037.4,030.6,28.4,0000.0,0011.27,0005.03,0004.00
2023-06-01 09:05:00,SystemResetWarning,0826.5,4.99,000.00,028.9,027.3,000.0,037.4,030.6,28.4,0000.0,0011.17,0005.04,0004.01
2023-06-01 09:06:00,SystemResetWarning,0826.6,5.00,000.00,029.0,027.3,000.0,037.4,030.6,28.3,0000.0,0011.21,0005.06,0004.01
2023-06-01 09:07:00,SystemResetWarning,0826.6,5.00,000.00,029.0,027.3,000.0,037.4,030.6,28.3,0000.0,0010.78,0005.04,0004.00
2023-06-01 09:08:00,SystemResetWarning,0826.6,5.00,000.00,029.0,027.4,000.0,037.4,030.6,28.3,0000.0,0010.52,0005.01,0003.99
2023-06-01 09:09:00,SystemResetWarning,0826.6,5.00,000.00,029.0,027.4,000.0,037.4,030.6,28.3,0000.0,0010.33,0005.05,0003.99
2023-06-01 09:10:00,SystemResetWarning,0826.6,5.00,000.00,029.0,027.4,000.0,037.4,030.6,28.3,0000.0,0011.55,0005.07,0004.00
2023-06-01 09:11:00,SystemResetWarning,0826.6,5.00,000.00,029.0,027.4,000.0,037.4,030.6,28.3,0000.0,0012.00,0005.08,0004.00
2023-06-01 09:12:00,SystemResetWarning,0826.6,5.00,000.00,029.0,027.4,000.0,037.4,030.6,28.3,0000.0,0012.18,0005.09,0004.00
2023-06-01 09:13:00,SystemResetWarning,0826.6,5.00,000.00,029.0,027.4,000.0,037.4,030.6,28.3,0000.0,0012.83,0005.08,0004.00
2023-06-01 09:14:00,SystemResetWarning,0826.6,5.00,000.00,029.0,027.4,000.0,037.4,030.6,28.3,0000.0,0012.94,0005.02,0003.98
2023-06-01 09:15:00,SystemResetWarning,0826.6,5.00,000.00,029.0,027.4,000.0,037.4,030.6,28.2,0000.0,0012.93,0004.99,0003.96
2023-06-01 09:16:00,SystemResetWarning,0826.6,5.00,000.00,029.0,027.4,000.0,037.4,030.6,28.2,0000.0,0012.94,0004.99,0003.93
2023-06-01 09:17:00,SystemResetWarning,0826.6,5.00,000.00,029.0,027.4,000.0,037.4,030.7,28.1,0000.0,0012.91,0004.97,0003.92
2023-06-01 09:18:00,SystemResetWarning,0826.6,4.99,000.00,029.0,027.4,000.0,037.4,030.6,28.1,0000.0,0012.97,0004.95,0003.89
2023-06-01 09:19:00,SystemResetWarning,0826.6,5.00,000.00,029.0,027.4,000.0,037.4,030.6,28.1,0000.0,0012.84,0004.93,0003.87
2023-06-01 09:20:00,SystemResetWarning,0826.6,5.01,000.00,029.0,027.4,000.0,037.4,030.7,28.1,0000.0,0012.51,0004.86,0003.85
2023-06-01 09:21:00,SystemResetWarning,0826.6,5.01,000.00,029.0,027.4,000.0,037.4,030.7,28.0,0000.0,0011.13,0004.80,0003.82
2023-06-01 09:22:00,SystemResetWarning,0826.6,5.00,000.00,029.0,027.4,000.0,037.4,030.6,28.0,0000.0,0010.82,0004.74,0003.78
2023-06-01 09:23:00,SystemResetWarning,0826.6,5.00,000.00,029.0,027.4,000.0,037.4,030.6,28.1,0000.0,0010.73,0004.70,0003.75
2023-06-01 09:24:00,SystemResetWarning,0826.6,4.99,000.00,029.0,027.4,000.0,037.4,030.6,28.1,0000.0,0010.18,0004.74,0003.74
2023-06-01 09:25:00,SystemResetWarning,0826.6,4.99,000.00,029.0,027.4,000.0,037.4,030.6,28.0,0000.0,0010.29,0004.71,0003.72
2023-06-01 09:26:00,SystemResetWarning,0826.6,5.00,000.00,029.0,027.4,000.0,037.4,030.6,28.0,0000.0,0010.21,0004.69,0003.71
2023-06-01 09:27:00,SystemResetWarning,0826.6,5.01,000.00,029.0,027.4,000.0,037.4,030.6,28.1,0000.0,0010.88,0004.74,0003.71
2023-06-01 09:28:00,SystemResetWarning,0826.6,5.01,000.00,029.0,027.4,000.0,037.4,030.6,28.1,0002.4,0011.15,0004.75,0003.70
2023-06-01 09:29:00,SystemResetWarning,0826.6,5.01,000.00,029.0,027.4,000.0,037.4,030.7,28.1,0003.5,0011.18,0004.73,0003.70
2023-06-01 09:30:00,SystemResetWarning,0826.7,5.00,000.00,029.0,027.4,000.0,037.4,030.6,28.1,0003.3,0011.22,0004.73,0003.71
2023-06-01 09:31:00,SystemResetWarning,0826.7,5.00,000.00,029.0,027.4,000.0,037.4,030.7,28.0,0003.3,0011.22,0004.75,0003.72
2023-06-01 09:32:00,SystemResetWarning,0826.7,5.01,000.00,029.0,027.4,000.0,037.4,030.6,28.1,0003.2,0011.39,0004.73,0003.73
2023-06-01 09:33:00,SystemResetWarning,0826.7,4.99,000.00,029.0,027.4,000.0,037.4,030.6,28.0,0003.2,0011.21,0004.75,0003.74
2023-06-01 09:34:00,SystemResetWarning,0826.6,4.99,000.00,029.0,027.4,000.0,037.4,030.7,28.0,0002.9,0010.88,0004.75,0003.74
2023-06-01 09:35:00,SystemResetWarning,0826.6,4.99,000.00,029.0,027.4,000.0,037.4,030.6,28.0,0002.8,0010.83,0004.72,0003.74
2023-06-01 09:36:00,SystemResetWarning,0826.6,4.99,000.00,029.0,027.4,000.0,037.4,030.6,27.9,0003.3,0010.73,0004.73,0003.75
2023-06-01 09:37:00,SystemResetWarning,0826.6,5.01,000.00,029.0,027.4,000.0,037.4,030.6,28.0,0001.2,0010.72,0004.76,0003.76
2023-06-01 09:38:00,SystemResetWarning,0826.6,5.01,000.00,029.0,027.4,000.0,037.4,030.7,28.1,0000.0,0010.46,0004.73,0003.76
2023-06-01 09:39:00,SystemResetWarning,0826.6,4.99,000.00,029.0,027.4,000.0,037.4,030.6,28.0,0000.0,0010.56,0004.73,0003.76
2023-06-01 09:40:00,SystemResetWarning,0826.6,4.99,000.00,029.0,027.4,000.0,037.4,030.6,28.1,0000.0,0010.31,0004.70,0003.76
2023-06-01 09:41:00,SystemResetWarning,0826.6,5.01,000.00,029.0,027.4,000.0,037.4,030.6,28.1,0000.0,0010.43,0004.72,0003.76
2023-06-01 09:42:00,SystemResetWarning,0826.6,5.01,000.00,029.0,027.3,000.0,037.4,030.6,28.1,0000.0,0010.40,0004.74,0003.77
2023-06-01 09:43:00,SystemResetWarning,0826.6,5.01,000.00,029.0,027.3,000.0,037.4,030.6,28.1,0000.0,0010.29,0004.79,0003.77
2023-06-01 09:44:00,SystemResetWarning,0826.6,5.00,000.00,029.0,027.3,000.0,037.4,030.6,28.1,0000.0,0010.24,0004.84,0003.77
2023-06-01 09:45:00,SystemResetWarning,0826.6,4.99,000.00,029.0,027.3,000.0,037.4,030.6,28.1,0000.0,0010.85,0004.86,0003.78
2023-06-01 09:46:00,SystemResetWarning,0826.6,4.99,000.00,029.0,027.3,000.0,037.4,030.6,28.0,0000.0,0011.56,0004.91,0003.78
2023-06-01 09:47:00,SystemResetWarning,0826.6,5.00,000.00,029.0,027.3,000.0,037.4,030.6,28.1,0000.0,0011.43,0004.95,0003.78
2023-06-01 09:48:00,SystemResetWarning,0826.6,5.01,000.00,029.0,027.3,000.0,037.4,030.6,28.1,0000.0,0011.68,0004.97,0003.78
2023-06-01 09:49:00,SystemResetWarning,0826.6,5.01,000.00,029.0,027.3,000.0,037.4,030.6,28.1,0000.0,0011.97,0004.99,0003.78
2023-06-01 09:50:00,SystemResetWarning,0826.6,5.00,000.00,029.0,027.3,000.0,037.4,030.6,28.1,0000.0,0012.48,0005.01,0003.78
2023-06-01 09:51:00,SystemResetWarning,0826.5,5.00,000.00,029.0,027.3,000.0,037.4,030.6,28.1,0000.0,0012.71,0005.10,0003.79
2023-06-01 09:52:00,SystemResetWarning,0826.5,4.99,000.00,029.0,027.3,000.0,037.4,030.6,28.1,0000.0,0012.89,0005.15,0003.78
2023-06-01 09:53:00,SystemResetWarning,0826.4,5.00,000.00,029.0,027.3,000.0,037.4,030.6,28.1,0000.0,0014.15,0005.22,0003.76
2023-06-01 09:54:00,SystemResetWarning,0826.4,5.00,000.00,029.0,027.3,000.0,037.4,030.6,28.2,0000.0,0015.48,0005.27,0003.77
2023-06-01 09:55:00,SystemResetWarning,0826.4,5.00,000.00,028.9,027.3,000.0,037.4,030.6,28.1,0000.0,0015.78,0005.29,0003.75
2023-06-01 09:56:00,SystemResetWarning,0826.4,5.00,000.00,029.0,027.3,000.0,037.4,030.6,28.1,0000.0,0015.94,0005.32,0003.75
2023-06-01 09:57:00,SystemResetWarning,0826.3,5.01,000.00,029.0,027.3,000.0,037.4,030.6,28.1,0000.0,0015.72,0005.33,0003.74
2023-06-01 09:58:00,SystemResetWarning,0826.4,5.01,000.00,028.9,027.3,000.0,037.3,030.6,28.1,0000.0,0015.85,0005.35,0003.73
2023-06-01 09:59:00,SystemResetWarning,0826.3,5.00,000.00,028.9,027.3,000.0,037.3,030.6,28.1,0000.0,0015.93,0005.35,0003.72
